W0BJ-1 Weather Reports


Display with metric or nautical units.
time (UTC)temp
F
wind
direction
speed
MPH
gust
MPH
rain 1hr
in
rain 24hr
in
rain mn
in
humidity
%
barometer
mb
20260505004037 76 180 1.0 7.0 0.00 0.00 0.00 55 1002.3
20260505003541 76 202 2.0 7.0 0.00 0.00 0.00 54 1002.2
20260505003049 76 187 2.0 6.0 0.00 0.00 0.00 54 1002.2
20260505002537 77 195 1.0 10.0 0.00 0.00 0.00 53 1002.2
20260505002038 77 240 3.0 13.0 0.00 0.00 0.00 53 1002.2
20260505001545 77 224 3.0 13.0 0.00 0.00 0.00 52 1002.2
20260505001038 77 186 2.0 8.0 0.00 0.00 0.00 53 1002.3
20260505000538 77 202 3.0 7.0 0.00 0.00 0.00 52 1002.3
20260505000057 77 250 2.0 9.0 0.00 0.00 0.00 52 1002.3
20260504235540 77 189 3.0 10.0 0.00 0.00 0.00 52 1002.2
20260504235038 77 195 3.0 12.0 0.00 0.00 0.00 52 1002.2
20260504234603 77 172 4.0 12.0 0.00 0.00 0.00 51 1002.2
20260504234037 78 190 4.0 11.0 0.00 0.00 0.00 51 1002.4
20260504233537 78 189 3.0 9.0 0.00 0.00 0.00 51 1002.4
20260504233049 78 200 2.0 10.0 0.00 0.00 0.00 51 1002.4
20260504232540 78 167 3.0 13.0 0.00 0.00 0.00 51 1002.4
20260504232041 78 215 5.0 13.0 0.00 0.00 0.00 49 1002.5
20260504231547 78 265 5.0 17.0 0.00 0.00 0.00 50 1002.5
20260504231037 78 165 6.0 17.0 0.00 0.00 0.00 49 1002.5
20260504230538 79 205 6.0 15.0 0.00 0.00 0.00 48 1002.6
20260504230047 79 214 4.0 13.0 0.00 0.00 0.00 50 1002.6
20260504225538 79 0 5.0 13.0 0.00 0.00 0.00 50 1002.6
20260504225038 79 259 4.0 13.0 0.00 0.00 0.00 49 1002.7
20260504224553 79 205 3.0 12.0 0.00 0.00 0.00 52 1002.6
20260504224041 78 201 5.0 19.0 0.00 0.00 0.00 51 1002.6
20260504223538 78 194 4.0 19.0 0.00 0.00 0.00 49 1002.7
20260504223046 78 212 6.0 17.0 0.00 0.00 0.00 50 1002.6
20260504222538 78 194 6.0 13.0 0.00 0.00 0.00 50 1002.7
20260504222038 79 182 3.0 11.0 0.00 0.00 0.00 51 1002.6
20260504221546 79 184 4.0 12.0 0.00 0.00 0.00 51 1002.6
20260504221038 79 208 5.0 16.0 0.00 0.00 0.00 49 1002.6
20260504220538 79 196 6.0 16.0 0.00 0.00 0.00 48 1002.6
20260504220100 79 169 6.0 20.0 0.00 0.00 0.00 47 1002.6
20260504215537 79 160 8.0 20.0 0.00 0.00 0.00 48 1002.7
20260504215041 79 191 9.0 19.0 0.00 0.00 0.00 46 1002.6
20260504214548 80 213 7.0 16.0 0.00 0.00 0.00 48 1002.6
20260504214039 80 215 8.0 16.0 0.00 0.00 0.00 46 1002.6
20260504213539 80 184 8.0 18.0 0.00 0.00 0.00 47 1002.6
20260504213107 81 207 7.0 18.0 0.00 0.00 0.00 46 1002.7
20260504212538 81 115 4.0 12.0 0.00 0.00 0.00 50 1002.7
20260504212041 80 294 5.0 14.0 0.00 0.00 0.00 48 1002.6
20260504211551 80 232 4.0 14.0 0.00 0.00 0.00 50 1002.7
20260504211039 80 184 6.0 17.0 0.00 0.00 0.00 50 1002.7
20260504210537 80 200 4.0 17.0 0.00 0.00 0.00 50 1002.7
20260504210047 80 251 5.0 18.0 0.00 0.00 0.00 51 1002.7
20260504205539 80 254 8.0 18.0 0.00 0.00 0.00 49 1002.7
20260504205039 79 175 3.0 20.0 0.00 0.00 0.00 52 1002.7
20260504204555 79 258 8.0 22.0 0.00 0.00 0.00 50 1002.7
20260504204038 78 235 9.0 22.0 0.00 0.00 0.00 51 1002.8
20260504203538 78 144 7.0 16.0 0.00 0.00 0.00 53 1002.8
20260504203049 77 173 5.0 13.0 0.00 0.00 0.00 58 1002.9
20260504202538 77 133 4.0 10.0 0.00 0.00 0.00 57 1002.9
20260504202037 77 171 3.0 9.0 0.00 0.00 0.00 61 1003.2
20260504201547 76 233 3.0 9.0 0.00 0.00 0.00 59 1003.1
20260504201038 76 241 3.0 10.0 0.00 0.00 0.00 59 1003.3
20260504200539 76 232 5.0 14.0 0.00 0.00 0.00 55 1003.3
20260504200047 77 160 4.0 14.0 0.00 0.00 0.00 56 1003.4
20260504195540 77 225 4.0 15.0 0.00 0.00 0.00 57 1003.4
20260504195040 77 162 5.0 15.0 0.00 0.00 0.00 55 1003.4
20260504194557 77 228 6.0 12.0 0.00 0.00 0.00 56 1003.9
20260504194038 76 171 3.0 13.0 0.00 0.00 0.00 57 1004.1
20260504193540 76 124 5.0 13.0 0.00 0.00 0.00 55 1003.9
20260504193106 76 229 4.0 17.0 0.00 0.00 0.00 58 1004.3
20260504192538 76 126 4.0 17.0 0.00 0.00 0.00 56 1004.4
20260504192042 76 211 5.0 11.0 0.00 0.00 0.00 56 1004.5
20260504191553 75 174 4.0 12.0 0.00 0.00 0.00 56 1004.6
20260504191038 75 225 3.0 13.0 0.00 0.00 0.00 56 1004.6
20260504190538 75 175 6.0 13.0 0.00 0.00 0.00 56 1004.7
20260504190054 75 189 5.0 10.0 0.00 0.00 0.00 59 1004.7
20260504185536 74 128 5.0 9.0 0.00 0.00 0.00 59 1004.7
20260504185039 73 176 3.0 9.0 0.00 0.00 0.00 60 1004.8
20260504184546 73 122 3.0 8.0 0.00 0.00 0.00 62 1004.7
20260504184044 73 158 2.0 10.0 0.00 0.00 0.00 60 1004.8
20260504183541 73 130 3.0 10.0 0.00 0.00 0.00 62 1004.6
20260504183058 73 188 3.0 9.0 0.00 0.00 0.00 58 1004.3
20260504182540 73 182 4.0 10.0 0.00 0.00 0.00 58 1004.6
20260504182040 73 145 4.0 10.0 0.00 0.00 0.00 59 1004.7
20260504181554 73 138 3.0 16.0 0.00 0.00 0.00 60 1004.8
20260504181041 73 171 6.0 16.0 0.00 0.00 0.00 58 1005.0
20260504180541 72 231 5.0 16.0 0.00 0.00 0.00 64 1005.2
20260504180131 72 243 3.0 16.0 0.00 0.00 0.00 66 1005.2
20260504175544 71 130 4.0 13.0 0.00 0.00 0.00 65 1005.2
20260504175040 70 180 2.0 6.0 0.00 0.00 0.00 70 1005.1
20260504174550 69 131 2.0 6.0 0.00 0.00 0.00 69 1005.3
20260504174040 68 231 2.0 5.0 0.00 0.00 0.00 72 1005.5
20260504173539 67 135 2.0 5.0 0.00 0.00 0.00 71 1005.5
20260504173050 66 0 1.0 8.0 0.00 0.00 0.00 70 1005.4
20260504172540 66 231 2.0 9.0 0.00 0.00 0.00 69 1005.5
20260504172040 65 246 2.0 9.0 0.00 0.00 0.00 69 1005.6
20260504171558 65 192 2.0 12.0 0.00 0.00 0.00 68 1005.1
20260504171041 65 164 4.0 12.0 0.00 0.00 0.00 68 1005.4
20260504170540 65 196 3.0 14.0 0.00 0.00 0.00 68 1005.5
20260504151039 64 167 2.0 8.0 0.00 0.00 0.00 74 1006.5
20260504150541 63 192 2.0 8.0 0.00 0.00 0.00 73 1006.6
20260504141039 63 207 4.0 9.0 0.00 0.00 0.00 70 1006.4
20260504140539 64 150 2.0 8.0 0.00 0.00 0.00 69 1006.9
20260504130540 63 200 3.0 10.0 0.00 0.00 0.00 73 1007.4
20260504120109 58 184 4.0 14.0 0.00 0.00 0.00 76 1007.6
20260504110540 56 182 2.0 6.0 0.00 0.00 0.00 81 1007.6
20260504100539 56 209 1.0 4.0 0.00 0.00 0.00 79 1008.5
20260504100114 56 210 1.0 3.0 0.00 0.00 0.00 79 1008.4
20260504081545 55 0 0.0 0.0 0.00 0.00 0.00 83 1007.9
20260504081039 55 0 0.0 0.0 0.00 0.00 0.00 83 1008.0
20260504080539 55 0 0.0 0.0 0.00 0.00 0.00 83 1008.0
20260504050539 58 0 0.0 4.0 0.00 0.00 0.00 79 1009.8
20260504045539 58 256 1.0 4.0 0.00 0.00 0.00 77 1009.2
20260504045038 59 313 1.0 3.0 0.00 0.00 0.00 76 1009.0
20260504044546 59 0 0.0 0.0 0.00 0.00 0.00 76 1008.9
20260504044043 59 0 0.0 0.0 0.00 0.00 0.00 75 1008.9
20260504043539 60 0 0.0 0.0 0.00 0.00 0.00 72 1008.8
20260504043059 60 0 0.0 0.0 0.00 0.00 0.00 72 1008.7
20260504042540 60 0 0.0 0.0 0.00 0.00 0.00 72 1008.6
20260504042040 60 0 0.0 0.0 0.00 0.00 0.00 72 1008.6
20260504041545 60 0 0.0 1.0 0.00 0.00 0.00 71 1008.7
20260504041038 60 0 0.0 1.0 0.00 0.00 0.00 71 1008.9
20260504040539 60 0 0.0 6.0 0.00 0.00 0.00 71 1009.0
20260504040103 60 0 0.0 6.0 0.00 0.00 0.00 73 1009.1
20260504035539 60 252 2.0 6.0 0.00 0.00 0.00 72 1009.5
20260504035042 61 126 1.0 4.0 0.00 0.00 0.00 71 1009.3
20260504034558 61 0 0.0 0.0 0.00 0.00 0.00 71 1009.7
20260504034039 61 0 0.0 4.0 0.00 0.00 0.00 71 1009.8
20260504033543 61 0 0.0 4.0 0.00 0.00 0.00 71 1010.0
20260504033053 62 198 1.0 4.0 0.00 0.00 0.00 70 1010.1
20260504032539 61 0 0.0 0.0 0.00 0.00 0.00 69 1009.9
20260504032043 61 0 0.0 0.0 0.00 0.00 0.00 70 1009.8
20260504031546 61 0 0.0 2.0 0.00 0.00 0.00 70 1009.8
20260504031039 61 0 0.0 3.0 0.00 0.00 0.00 70 1009.8
20260504030539 61 340 1.0 3.0 0.00 0.00 0.00 71 1009.9
20260504030050 61 340 2.0 4.0 0.00 0.00 0.00 72 1009.8
20260504025541 62 0 1.0 4.0 0.00 0.00 0.00 72 1009.7
20260504025039 62 351 2.0 4.0 0.00 0.00 0.00 71 1009.6
20260504024548 62 313 1.0 4.0 0.00 0.00 0.00 71 1009.5
20260504024039 63 315 1.0 3.0 0.00 0.00 0.00 70 1009.6
20260504023540 63 0 0.0 0.0 0.00 0.00 0.00 69 1009.4
20260504023047 64 0 0.0 0.0 0.00 0.00 0.00 68 1009.4
20260504022538 64 0 0.0 0.0 0.00 0.00 0.00 67 1009.3
20260504022040 65 0 0.0 0.0 0.00 0.00 0.00 63 1009.3
20260504021547 66 0 0.0 0.0 0.00 0.00 0.00 62 1009.2
20260504021038 66 0 0.0 0.0 0.00 0.00 0.00 62 1009.2
20260504020539 66 0 0.0 0.0 0.00 0.00 0.00 62 1009.2
20260504015539 67 0 0.0 0.0 0.00 0.00 0.00 62 1009.2
20260504015039 67 0 0.0 0.0 0.00 0.00 0.00 61 1009.2
20260504014551 68 0 0.0 0.0 0.00 0.00 0.00 59 1009.3
20260504014040 68 0 0.0 0.0 0.00 0.00 0.00 58 1009.2
20260504013539 69 0 0.0 0.0 0.00 0.00 0.00 57 1009.2
20260504013050 70 0 0.0 0.0 0.00 0.00 0.00 55 1009.1
20260504012541 70 0 0.0 0.0 0.00 0.00 0.00 54 1009.2
20260504012041 71 0 0.0 0.0 0.00 0.00 0.00 53 1009.1
20260504011548 71 0 0.0 0.0 0.00 0.00 0.00 51 1009.0
20260504011038 72 0 0.0 1.0 0.00 0.00 0.00 50 1009.1
20260504010539 72 0 0.0 2.0 0.00 0.00 0.00 49 1009.0
20260504010047 72 0 0.0 2.0 0.00 0.00 0.00 49 1009.0
20260504005539 73 0 0.0 3.0 0.00 0.00 0.00 49 1009.0
20260504005039 73 0 0.0 3.0 0.00 0.00 0.00 48 1009.0
20260504004546 73 219 0.0 3.0 0.00 0.00 0.00 48 1008.9